Other Public Products
Issued by NWS Grand Forks, ND

Home | Current Version | Previous Version | Graphics & Text | Print | Product List | Glossary On
Versions: 1 2 3 4 5 6 7 8 9 10 11 12 13 14 15 16 17 18 19 20 21 22 23 24 25 26 27 28 29 30 31 32 33 34 35 36 37 38 39 40 41 42 43 44 45 46 47 48 49 50
005
FPUS83 KFGF 111710
OPUFGF
PRAIRIE TO PINES WEATHER ROUNDUP
NATIONAL WEATHER SERVICE EASTERN NORTH DAKOTA/GRAND FORKS ND
1100 AM CST MON DEC 11 2017

 **SATELLITE DATA USED TO AUGMENT SKY COVER AT AUTOMATED STATIONS**
 *****  WEATHER ACROSS EASTERN NORTH DAKOTA  *****

CITY           SKY/WX    TMP DP  RH WIND       PRES   REMARKS
GRAND FORKS    BLWGSNOW  19  14  81 N32G46    30.14R VSB 1   WCI  -1
GRND FORKS AFB CLOUDY    19  12  74 N24G38    30.15R BLWGSNOWWCI   2
GRND FORKS NWS   N/A     19 N/A N/A N24         N/A  WCI   2
BUXTON         NOT AVBL
DEVILS LAKE    FLURRIES  19  15  84 N22G29    30.20R WCI   2
FARGO          MIX PCPN  26  21  81 N30G44    30.08R WCI  10
WAHPETON ARPT  CLOUDY    28  21  74 N31G41    30.04R WCI  12
$$

 *****  WEATHER ACROSS CENTRAL AND WESTERN NORTH DAKOTA  *****

CITY           SKY/WX    TMP DP  RH WIND       PRES   REMARKS
JAMESTOWN      CLOUDY    27  23  85 N22G37    30.13R WCI  13
BISMARCK       CLOUDY    37  29  72 N17G26    30.22R
MINOT          CLOUDY    31  23  72 N16       30.23R WCI  20
MINOT AFB      CLOUDY    29  22  74 N13       30.23R WCI  19
GARRISON         N/A     35  26  69 N21       30.21R WCI  24
WILLISTON      FLURRIES  36  31  82 NW13      30.31R
DICKINSON      CLOUDY    35  31  85 NW16G25   30.25R
HETTINGER      CLOUDY    36  28  73 NW31G39   30.27R
$$

 *****  OTHER OBSERVATIONS NORTHEAST NORTH DAKOTA  *****

CITY           SKY/WX    TMP DP  RH WIND       PRES   REMARKS
WALHALLA       FLURRIES  18  14  86 N25G37    30.21R WCI  -1
LANGDON        NOT AVBL
CAVALIER       PTSUNNY   16  10  79 N24G35    30.20R WCI  -3
GRAFTON        NOT AVBL
CANDO          FLURRIES  19  18  93 N25G32    30.23R WCI   2
FORT TOTTEN      N/A     20  15  81 N8        29.95S WCI  10
ROLLA          FLURRIES  18  14  86 N24G31    30.21R WCI   0
RUGBY          NOT AVBL
 ***** THE ABOVE OBSERVATIONS ARE NON NWS ARE NOT QUALITY
        CONTROLLED AND MAY MIS-REPORT RAIN FOR SNOW...
$$

 *****  OTHER OBSERVATIONS SOUTHEAST NORTH DAKOTA *****

CITY           SKY/WX    TMP DP  RH WIND       PRES   REMARKS
COOPERSTOWN    PTSUNNY   21  16  79 N32G39    30.14R WCI   2
VALLEY CITY    NOT AVBL
OAKES            N/A     30  30 100 N21G30    30.09R WCI  17
GWINNER          N/A     30  25  80 N26G33    30.09R WCI  16
SHEYENNE NWR     N/A     28  26  91 N17       29.95S WCI  16
BUFFALO        NOT AVBL
WYNDMERE       NOT AVBL
 ***** THE ABOVE OBSERVATIONS ARE NON NWS ARE NOT QUALITY
       CONTROLLED AND MAY MIS-REPORT RAIN FOR SNOW...
$$

  *****  WEATHER ACROSS NORTHERN MINNESOTA  *****

CITY           SKY/WX    TMP DP  RH WIND       PRES   REMARKS
FLAG ISLAND    LGT SNOW  18   9  68 N23G29    30.04R WCI   0
WARROAD        LGT SNOW  21  16  79 N14G26    30.05R WCI   8
ROSEAU         LGT SNOW  19  16  86 NW20      30.07R WCI   4
HALLOCK        PTSUNNY   16  10  79 N23G33    30.16R HAZE    WCI  -2
THF RVR FALLS  LGT SNOW  20  13  74 N28G37    30.07R WCI   2
HALSTAD        NOT AVBL
FOSSTON        CLOUDY    21  18  86 NW20G30   30.02R FOG     WCI   6
BAUDETTE       CLOUDY    20  12  71 N22G40    29.99R WCI   3
WASKISH        NOT AVBL
CROOKSTON      CLOUDY    19  18  93 N31G37    30.10R FOG     WCI   0
$$
  *****  WEATHER ACROSS CENTRAL AND WEST MINNESOTA  *****

CITY           SKY/WX    TMP DP  RH WIND       PRES   REMARKS
BEMIDJI        CLOUDY    23  20  89 N16G25    29.95R WCI   9
PARK RAPIDS    CLOUDY    26  22  84 NW22G35   29.90R WCI  12
WADENA         CLOUDY    28  25  86 N22G29    29.90R WCI  15
DETROIT LAKES  CLOUDY    27  25  93 N22G31    29.99R FOG     WCI  12
MOORHEAD       CLOUDY    25  19  80 N35G43    30.07R WCI   7
FERGUS FALLS   CLOUDY    25  23  93 N32G45    30.01R WCI   7
ELBOW LAKE     CLOUDY    27  25  93 NW24G36   29.96R FOG     WCI  12
MORRIS MN      CLOUDY    30  27  86 N31G40    29.95R WCI  15
STAPLES        CLOUDY    28  25  86 N21G29    29.88R WCI  15
WHEATON        NOT AVBL
$$
  *****  WEATHER ELSEWHERE ACROSS MINNESOTA  *****

CITY           SKY/WX    TMP DP  RH WIND       PRES   REMARKS
DULUTH         FLURRIES  25  22  88 N18G25    29.74R WCI  11
INTRNTL FALLS  FLURRIES  20  12  71 N20G26    29.93R WCI   4
ELY            CLOUDY    19  18  93 NW9G16    29.79R WCI   9
CLOQUET        CLOUDY    27  21  80 NW16G26   29.77R WCI  14
BRAINERD       CLOUDY    30  24  78 N17G26    29.85R WCI  18
HIBBING        MIX PCPN  22  19  89 N23       29.83R WCI   6
ALEXANDRIA     CLOUDY    32  27  81 N24G33    29.90R WCI  19
SAINT CLOUD    CLOUDY    35  31  85 N13G23    29.80R
MINNEAPOLIS    CLOUDY    34  31  88 N15       29.77R WCI  24
$$

  *****  WEATHER ACROSS SOUTH DAKOTA  *****

CITY           SKY/WX    TMP DP  RH WIND       PRES   REMARKS
SIOUX FALLS    CLOUDY    39  34  82 N26G37    29.96R
BROOKINGS      CLOUDY    35  31  85 N31       29.94R WCI  22
WATERTOWN      CLOUDY    33  29  85 N28G44    29.99R WCI  20
HURON          CLOUDY    40  33  76 N21G33    30.06R
SISSETON         N/A     31  26  82 N32G47    30.04R WCI  16
ABERDEEN       CLOUDY    36  31  82 N25G39    30.11R
MITCHELL       CLOUDY    42  34  73 NW25G33   30.06R
PIERRE         CLOUDY    40  31  70 NW28G37   30.18R
MOBRIDGE       CLOUDY    39  32  76 NW23G37   30.14R
RAPID CITY     FAIR      43  20  39 NW39G53   30.25R
$$

  *****  SOME WEATHER IN NEARBY STATES *****

CITY           SKY/WX    TMP DP  RH WIND       PRES   REMARKS
GLASGOW MT     FAIR      34  24  67 W9        30.39R
GREAT FALLS MT FAIR      41  14  33 SW14      30.42R
CHEYENNE WY    FAIR      49   1  14 NW21G30   30.36R
SCOTTSBLUFF NE FAIR      45  14  28 NW22G30   30.35R
OMAHA NE       CLOUDY    48  30  49 NW26G39   29.96R
DES MOINES IA  CLOUDY    45  30  55 NW26G39   29.80R
DAVENPORT IA   FAIR      40  26  57 S9        29.73F
CHICAGO IL     CLOUDY    33  23  66 S10       29.78F WCI  25
EAU CLAIRE WI  CLOUDY    28  24  85 CALM      29.74R FOG
LA CROSSE WI   SNOW      29  26  89 CALM      29.74S VSB 1/2
$$

  *****  SOME NATIONAL WEATHER *****

CITY           SKY/WX    TMP DP  RH WIND       PRES   REMARKS
LA GUARDIA NY  FAIR      40  23  50 NW10      30.01F
RALEIGH NC     FAIR      49  27  42 NW6       30.10F
ATLANTA GA     FAIR      51  33  50 CALM      30.15F
NEW ORLEANS LA PTSUNNY   63  40  42 W9        30.29F
OKLAHOMA CITY  FAIR      62  15  16 NW12      30.18F
ALBUQUERQUE NM PTSUNNY   38   2  22 NW8       30.47R
SALT LAKE CITY FOG       27  24  89 CALM      30.65R VSB 1/4
LOS ANGELES CA PTSUNNY   71  13  10 VRB5      30.21R
BOISE ID       CLOUDY    23  20  88 S5        30.69S FOG     WCI  17
SEATTLE WA     FAIR      32  31  96 S3        30.33S
$$

*** WEATHER ACROSS MANITOBA...SASKATCHEWAN AND ONTARIO ***
                ***ONTARIO***

CITY           SKY/WX    TMP DP  RH WIND       PRES   REMARKS
GERALDTON      LGT SNOW   7   3  85 CALM      29.71F
THUNDER BAY    LGT SNOW  12  10  92 SW6       29.76R WCI   3
SIOUX LOOKOUT  FLURRIES   9   3  78 N12G23    29.90R WCI  -6
TORONTO        NOT AVBL
BIG TROUT LK   FLURRIES  -2  -6  84 NW8       29.95R WCI -17
PICKLE LAKE    FLURRIES   1  -4  78 N9G23     29.86R WCI -14
DRYDEN         FLURRIES  12   7  79 N12G20    29.92R WCI  -2
KENORA         FLURRIES  14   7  73 N20G29    30.00R WCI  -3
$$
                *** MANITOBA***

CITY           SKY/WX    TMP DP  RH WIND       PRES   REMARKS
BRANDON        MOSUNNY   19  12  73 N13       30.27R WCI   7
DAUPHIN        FLURRIES  14  10  85 NE10      30.33R WCI   1
ISLAND LAKE    MOSUNNY   -9 -15  77 W7        30.14R WCI -24
PILOT MOUND      N/A     16  10  79 N17G23      N/A  WCI   0
THE PAS        FLURRIES   9   3  78 NW9       30.32R WCI  -5
THOMPSON       PTCLDY    -8 -13  77 NW9       30.23R WCI -25
WINNIPEG       MOSUNNY   10   3  72 N20       30.23R WCI  -8
LYNN LAKE      MOCLDY    -8 -11  84 NW8       30.24R WCI -23
CHURCHILL      CRYSTALS  -9 -15  77 NW21G28   30.10R WCI -35
GILLAM         MOCLDY    -9 -15  77 NW13      30.12R WCI -30
$$
                ***SASKATCHEWAN***

CITY           SKY/WX    TMP DP  RH WIND       PRES   REMARKS
ESTEVAN        CLOUDY    32  27  80 N13       30.28R WCI  22
KINDERSLEY     MOSUNNY   28  23  80 W7        30.34R WCI  21
LLOYDMINSTER   PTCLDY    28  23  80 W10       30.28S WCI  19
PRINCE ALBERT  CLOUDY    30  25  80 S5        30.29S
REGINA         MOSUNNY   32  28  86 NW13      30.31R WCI  22
YORKTON        CLOUDY    19  16  86 N12       30.29R W



USA.gov is the U.S. government's official web portal to all federal, state and local government web resources and services.